GW0795 Weather Reports


time (UTC)temp
C
wind
direction
speed
KPH
gust
KPH
rain 1hr
cm
rain 24hr
cm
rain mn
cm
humidity
%
barometer
mb
20260505125008 11 171 0.0 3.2 0.00 0.00 0.00 85 1014.5
20260505124514 12 212 0.0 3.2 0.00 0.00 0.00 85 1014.5
20260505124007 12 212 0.0 8.0 0.00 0.00 0.00 85 1014.5
20260505123507 11 212 0.0 8.0 0.00 0.00 0.00 85 1014.4
20260505123013 11 180 1.6 4.8 0.00 0.00 0.00 85 1014.5
20260505122504 12 192 1.6 4.8 0.00 0.00 0.00 85 1014.4
20260505122004 11 233 0.0 3.2 0.00 0.00 0.00 86 1014.4
20260505121517 11 204 0.0 1.6 0.00 0.00 0.00 86 1014.3
20260505121003 11 203 0.0 4.8 0.00 0.00 0.00 86 1014.3
20260505120508 11 204 1.6 4.8 0.00 0.00 0.00 86 1014.3
20260505120013 11 205 1.6 4.8 0.00 0.00 0.00 85 1014.3
20260505115504 11 207 0.0 4.8 0.00 0.00 0.00 85 1014.2
20260505115009 11 207 0.0 9.7 0.00 0.00 0.00 85 1014.3
20260505114519 11 186 4.8 8.0 0.00 0.00 0.00 85 1014.2
20260505114007 11 156 0.0 6.4 0.00 0.00 0.00 85 1014.3
20260505113509 11 202 0.0 6.4 0.00 0.00 0.00 85 1014.3
20260505113020 11 184 1.6 4.8 0.00 0.00 0.00 85 1014.3
20260505112507 11 245 0.0 9.7 0.00 0.00 0.00 86 1014.2
20260505112007 11 218 4.8 9.7 0.00 0.00 0.00 85 1014.2
20260505111518 11 192 1.6 4.8 0.00 0.00 0.00 85 1014.2
20260505111006 11 200 1.6 6.4 0.00 0.00 0.00 85 1014.2
20260505110507 11 224 1.6 6.4 0.00 0.00 0.00 85 1014.2
20260505102006 11 211 0.0 12.9 0.00 0.00 0.00 86 1013.9
20260505101519 11 213 4.8 12.9 0.00 0.00 0.00 86 1013.9
20260505101008 11 223 1.6 12.9 0.00 0.00 0.00 86 1013.8
20260505100507 11 222 1.6 12.9 0.00 0.00 0.00 86 1013.8
20260505100021 11 184 1.6 8.0 0.00 0.00 0.00 86 1013.8
20260505095507 11 213 1.6 11.3 0.00 0.00 0.00 86 1013.8
20260505095007 11 206 3.2 11.3 0.00 0.00 0.00 86 1013.8
20260505094520 11 186 1.6 14.5 0.00 0.00 0.00 86 1013.8
20260505094008 11 204 1.6 14.5 0.00 0.00 0.00 86 1013.8
20260505093507 11 186 3.2 14.5 0.00 0.00 0.00 87 1013.7
20260505093026 11 221 4.8 9.7 0.00 0.00 0.00 87 1013.7
20260505092507 11 246 1.6 9.7 0.00 0.00 0.00 87 1013.7
20260505092008 11 244 3.2 11.3 0.00 0.00 0.00 87 1013.7
20260505091503 11 219 0.0 11.3 0.00 0.00 0.00 87 1013.7
20260505091004 11 227 3.2 6.4 0.00 0.00 0.00 87 1013.6
20260505090504 11 222 0.0 6.4 0.00 0.00 0.00 87 1013.6
20260505090004 11 192 1.6 11.3 0.00 0.00 0.00 87 1013.5
20260505085504 11 194 3.2 11.3 0.00 0.00 0.00 87 1013.5
20260505085003 11 207 3.2 6.4 0.00 0.00 0.00 87 1013.5
20260505084508 11 181 0.0 8.0 0.00 0.00 0.00 87 1013.5
20260505084008 11 216 3.2 8.0 0.00 0.00 0.00 87 1013.4
20260505083507 11 180 0.0 6.4 0.00 0.00 0.00 87 1013.4
20260505083006 11 169 1.6 9.7 0.00 0.00 0.00 87 1013.4
20260505082500 11 197 0.0 9.7 0.00 0.00 0.00 88 1013.4
20260505082003 11 200 0.0 3.2 0.00 0.00 0.00 88 1013.4
20260505081505 11 181 0.0 3.2 0.00 0.00 0.00 88 1013.4
20260505081007 11 180 0.0 3.2 0.00 0.00 0.00 88 1013.3
20260505080502 11 191 0.0 4.8 0.00 0.00 0.00 88 1013.3
20260505080004 11 213 0.0 4.8 0.00 0.00 0.00 88 1013.3
20260505075502 11 207 0.0 3.2 0.00 0.00 0.00 88 1013.3
20260505075003 11 213 0.0 3.2 0.00 0.00 0.00 87 1013.2
20260505074508 11 213 0.0 4.8 0.00 0.00 0.00 87 1013.2
20260505074003 11 218 0.0 4.8 0.00 0.00 0.00 87 1013.1
20260505073504 11 161 0.0 1.6 0.00 0.00 0.00 87 1013.1
20260505073012 11 190 0.0 3.2 0.00 0.00 0.00 87 1013.0
20260505072507 11 194 1.6 3.2 0.00 0.00 0.00 87 1012.9
20260505072006 11 210 0.0 3.2 0.00 0.00 0.00 86 1012.9
20260505071503 11 198 1.6 6.4 0.00 0.00 0.00 86 1012.8
20260505071003 11 202 1.6 6.4 0.00 0.00 0.00 86 1012.8
20260505070503 11 221 0.0 3.2 0.00 0.00 0.00 86 1012.7
20260505070006 11 221 0.0 3.2 0.00 0.00 0.00 86 1012.7
20260505065502 11 221 0.0 4.8 0.00 0.00 0.00 86 1012.7
20260505065005 11 207 1.6 6.4 0.00 0.00 0.00 86 1012.6
20260505064509 11 198 0.0 6.4 0.00 0.00 0.00 86 1012.6
20260505064002 12 215 0.0 6.4 0.00 0.00 0.00 86 1012.6
20260505063504 12 205 1.6 8.0 0.00 0.00 0.00 85 1012.6
20260505063007 12 198 1.6 8.0 0.00 0.00 0.00 85 1012.5
20260505062505 12 184 1.6 8.0 0.00 0.00 0.00 85 1012.5
20260505062006 12 192 0.0 3.2 0.00 0.00 0.00 85 1012.4
20260505061515 12 186 0.0 8.0 0.00 0.00 0.00 85 1012.3
20260505061006 12 247 0.0 8.0 0.00 0.00 0.00 85 1012.2
20260505060507 12 193 1.6 6.4 0.00 0.00 0.00 85 1012.2
20260505060011 12 212 3.2 4.8 0.00 0.00 0.00 85 1012.2
20260505055503 12 195 1.6 3.2 0.00 0.00 0.00 84 1012.2
20260505055003 12 202 0.0 4.8 0.00 0.00 0.00 84 1012.2
20260505054503 12 207 0.0 8.0 0.00 0.00 0.00 84 1012.1
20260505054004 12 225 1.6 12.9 0.00 0.00 0.00 83 1012.0
20260505053503 12 209 6.4 12.9 0.00 0.00 0.00 83 1012.1
20260505053008 12 167 3.2 11.3 0.00 0.00 0.00 83 1012.0
20260505052503 12 211 3.2 11.3 0.00 0.00 0.00 83 1012.0
20260505052003 12 191 3.2 8.0 0.00 0.00 0.00 83 1012.0
20260505051514 12 198 3.2 8.0 0.00 0.00 0.00 82 1011.9
20260505051007 12 216 3.2 8.0 0.00 0.00 0.00 82 1012.0
20260505050510 12 208 0.0 8.0 0.00 0.00 0.00 82 1011.9
20260505041508 15 225 0.0 9.7 0.00 0.00 0.00 74 1011.0
20260505041005 15 180 1.6 6.4 0.00 0.00 0.00 74 1011.0
20260505040506 15 203 1.6 6.4 0.00 0.00 0.00 73 1011.0
20260505040014 15 220 0.0 3.2 0.00 0.00 0.00 73 1010.8
20260505035508 16 207 0.0 3.2 0.00 0.00 0.00 72 1010.7
20260505035008 16 203 1.6 3.2 0.00 0.00 0.00 72 1010.7
20260505034518 16 200 1.6 3.2 0.00 0.00 0.00 71 1010.6
20260505034010 16 209 0.0 3.2 0.00 0.00 0.00 70 1010.6
20260505033508 16 211 0.0 3.2 0.00 0.00 0.00 71 1010.4
20260505033013 17 183 0.0 3.2 0.00 0.00 0.00 70 1010.2
20260505032502 17 173 0.0 3.2 0.00 0.00 0.00 69 1010.2
20260505032002 17 158 0.0 3.2 0.00 0.00 0.00 68 1010.1
20260505031507 17 158 0.0 3.2 0.00 0.00 0.00 67 1010.1
20260505031008 18 158 0.0 3.2 0.00 0.00 0.00 66 1010.1
20260505030508 18 158 0.0 3.2 0.00 0.00 0.00 65 1010.0
20260505030011 18 138 0.0 1.6 0.00 0.00 0.00 64 1010.0
20260505025504 18 138 0.0 3.2 0.00 0.00 0.00 64 1010.0
20260505025006 19 221 0.0 3.2 0.00 0.00 0.00 63 1009.9
20260505024514 19 221 0.0 1.6 0.00 0.00 0.00 63 1009.9
20260505024008 19 155 0.0 1.6 0.00 0.00 0.00 62 1009.9
20260505023508 19 155 0.0 3.2 0.00 0.00 0.00 61 1009.9
20260505023018 20 195 0.0 3.2 0.00 0.00 0.00 60 1009.8
20260505022510 20 212 1.6 3.2 0.00 0.00 0.00 59 1009.8
20260505022009 20 213 0.0 3.2 0.00 0.00 0.00 57 1009.8
20260505021506 21 213 0.0 3.2 0.00 0.00 0.00 57 1009.8
20260505021004 21 213 0.0 3.2 0.00 0.00 0.00 56 1009.8
20260505020506 21 206 0.0 4.8 0.00 0.00 0.00 56 1009.8
20260505020008 21 206 0.0 4.8 0.00 0.00 0.00 56 1009.8
20260505015506 21 352 0.0 3.2 0.00 0.00 0.00 56 1009.8
20260505015005 21 330 0.0 3.2 0.00 0.00 0.00 54 1009.8
20260505014515 21 205 0.0 3.2 0.00 0.00 0.00 55 1009.9
20260505014007 22 273 0.0 3.2 0.00 0.00 0.00 55 1009.8
20260505013507 22 290 0.0 4.8 0.00 0.00 0.00 54 1009.8
20260505013017 22 200 0.0 4.8 0.00 0.00 0.00 54 1009.8
20260505012506 22 132 1.6 4.8 0.00 0.00 0.00 54 1009.7
20260505012011 22 181 0.0 9.7 0.00 0.00 0.00 54 1009.7
20260505011525 23 305 1.6 9.7 0.00 0.00 0.00 52 1009.7
20260505011010 23 127 0.0 4.8 0.00 0.00 0.00 52 1009.7
20260505010507 23 127 0.0 4.8 0.00 0.00 0.00 52 1009.7
20260505010008 23 190 1.6 3.2 0.00 0.00 0.00 52 1009.8
20260505005504 23 194 0.0 4.8 0.00 0.00 0.00 51 1009.8
20260505005004 23 207 0.0 8.0 0.00 0.00 0.00 51 1009.8
20260505004523 23 242 1.6 8.0 0.00 0.00 0.00 51 1009.8
20260505004007 23 169 0.0 4.8 0.00 0.00 0.00 51 1009.8
20260505003510 23 116 1.6 4.8 0.00 0.00 0.00 49 1009.8
20260505003017 23 291 1.6 4.8 0.00 0.00 0.00 50 1009.8
20260505002508 23 324 0.0 4.8 0.00 0.00 0.00 52 1009.8
20260505002008 23 114 0.0 8.0 0.00 0.00 0.00 51 1009.8
20260505001523 23 228 1.6 8.0 0.00 0.00 0.00 51 1009.8
20260505001013 23 306 1.6 8.0 0.00 0.00 0.00 49 1009.8
20260505000508 23 192 3.2 8.0 0.00 0.00 0.00 50 1009.8
20260505000025 23 5 1.6 6.4 0.00 0.00 0.00 51 1009.8
20260504235508 23 183 3.2 6.4 0.00 0.00 0.00 50 1009.8
20260504235008 23 311 1.6 4.8 0.00 0.00 0.00 51 1009.8
20260504234517 23 213 1.6 4.8 0.00 0.00 0.00 51 1009.8
20260504234005 23 198 0.0 6.4 0.00 0.00 0.00 51 1009.8
20260504233509 23 197 1.6 6.4 0.00 0.00 0.00 51 1009.8
20260504233016 23 183 1.6 8.0 0.00 0.00 0.00 50 1009.7
20260504232505 24 222 3.2 8.0 0.00 0.00 0.00 49 1009.8
20260504232008 24 201 3.2 9.7 0.00 0.00 0.00 49 1009.7
20260504231536 23 200 3.2 9.7 0.00 0.00 0.00 49 1009.8
20260504231007 25 189 3.2 8.0 0.00 0.00 0.00 48 1009.8
20260504230507 24 148 0.0 4.8 0.00 0.00 0.00 48 1009.8
20260504230025 24 337 1.6 9.7 0.00 0.00 0.00 49 1009.9
20260504225513 24 186 3.2 9.7 0.00 0.00 0.00 46 1010.0
20260504225009 24 193 1.6 8.0 0.00 0.00 0.00 47 1010.1
20260504224528 23 194 1.6 11.3 0.00 0.00 0.00 46 1010.3
20260504224007 24 197 4.8 11.3 0.00 0.00 0.00 44 1010.4
20260504223512 24 178 1.6 8.0 0.00 0.00 0.00 44 1010.6
20260504223014 23 140 3.2 8.0 0.00 0.00 0.00 46 1010.5
20260504222507 23 192 1.6 8.0 0.00 0.00 0.00 44 1010.6
20260504222006 24 217 3.2 11.3 0.00 0.00 0.00 47 1010.6
20260504221517 24 175 3.2 11.3 0.00 0.00 0.00 46 1010.7
20260504221008 23 131 3.2 9.7 0.00 0.00 0.00 45 1010.7
20260504220508 23 5 3.2 9.7 0.00 0.00 0.00 47 1010.8
20260504220024 23 182 3.2 9.7 0.00 0.00 0.00 45 1010.8
20260504215507 24 168 1.6 9.7 0.00 0.00 0.00 48 1010.8
20260504215012 24 169 3.2 8.0 0.00 0.00 0.00 45 1010.9
20260504214534 23 233 1.6 11.3 0.00 0.00 0.00 46 1010.9
20260504214012 23 319 4.8 11.3 0.00 0.00 0.00 44 1010.9
20260504213514 23 19 1.6 8.0 0.00 0.00 0.00 46 1010.8
20260504213030 24 114 1.6 6.4 0.00 0.00 0.00 47 1010.9
20260504212511 23 234 1.6 6.4 0.00 0.00 0.00 50 1010.9
20260504212013 23 193 3.2 6.4 0.00 0.00 0.00 48 1011.0
20260504211514 23 125 3.2 8.0 0.00 0.00 0.00 49 1011.1
20260504211007 23 192 3.2 8.0 0.00 0.00 0.00 51 1011.2
20260504210507 23 186 3.2 8.0 0.00 0.00 0.00 51 1011.2
20260504210007 23 109 1.6 4.8 0.00 0.00 0.00 52 1011.2
20260504205504 23 202 1.6 8.0 0.00 0.00 0.00 51 1011.2
20260504205003 22 59 1.6 11.3 0.00 0.00 0.00 53 1011.2
20260504204505 22 130 3.2 9.7 0.00 0.00 0.00 51 1011.3
20260504204003 21 212 3.2 9.7 0.00 0.00 0.00 52 1011.3
20260504203503 22 181 1.6 8.0 0.00 0.00 0.00 52 1011.3
20260504203012 22 194 0.0 8.0 0.00 0.00 0.00 53 1011.3
20260504202503 22 261 1.6 4.8 0.00 0.00 0.00 53 1011.2
20260504202007 22 207 1.6 8.0 0.00 0.00 0.00 54 1011.2
20260504201503 21 205 1.6 9.7 0.00 0.00 0.00 54 1011.1
20260504201007 21 109 1.6 11.3 0.00 0.00 0.00 56 1011.2
20260504200503 21 205 4.8 11.3 0.00 0.00 0.00 54 1011.3
20260504200008 21 194 3.2 12.9 0.00 0.00 0.00 57 1011.3
20260504195506 21 217 6.4 12.9 0.00 0.00 0.00 54 1011.4
20260504195002 21 194 3.2 11.3 0.00 0.00 0.00 54 1011.4
20260504194508 21 214 3.2 9.7 0.00 0.00 0.00 56 1011.4
20260504194004 21 254 3.2 9.7 0.00 0.00 0.00 56 1011.4
20260504193504 20 223 3.2 11.3 0.00 0.00 0.00 55 1011.4
20260504193017 20 239 4.8 12.9 0.00 0.00 0.00 54 1011.4
20260504192503 21 168 3.2 12.9 0.00 0.00 0.00 56 1011.4
20260504192012 21 216 3.2 11.3 0.00 0.00 0.00 53 1011.6
20260504191511 21 325 3.2 8.0 0.00 0.00 0.00 54 1011.6
20260504191006 21 178 3.2 9.7 0.00 0.00 0.00 56 1011.6
20260504190507 20 221 4.8 14.5 0.00 0.00 0.00 54 1011.5
20260504190003 20 278 1.6 14.5 0.00 0.00 0.00 56 1011.6
20260504185500 20 215 3.2 14.5 0.00 0.00 0.00 58 1011.6
20260504185002 20 228 3.2 8.0 0.00 0.00 0.00 57 1011.7
20260504184505 20 178 1.6 8.0 0.00 0.00 0.00 60 1011.7
20260504184004 20 244 3.2 9.7 0.00 0.00 0.00 59 1011.8
20260504183502 20 194 1.6 9.7 0.00 0.00 0.00 61 1011.7
20260504183005 19 208 1.6 11.3 0.00 0.00 0.00 59 1011.7
20260504182504 19 165 4.8 11.3 0.00 0.00 0.00 60 1011.8
20260504182008 19 140 3.2 8.0 0.00 0.00 0.00 59 1011.8
20260504181510 20 223 1.6 8.0 0.00 0.00 0.00 60 1011.8
20260504181004 19 194 3.2 9.7 0.00 0.00 0.00 61 1011.8
20260504180509 19 130 4.8 9.7 0.00 0.00 0.00 58 1011.8
20260504180014 18 187 1.6 6.4 0.00 0.00 0.00 60 1011.9
20260504175507 19 256 1.6 12.9 0.00 0.00 0.00 59 1011.9
20260504175007 18 223 1.6 12.9 0.00 0.00 0.00 63 1011.8
20260504174504 17 200 4.8 11.3 0.00 0.00 0.00 63 1011.8
20260504174002 17 219 1.6 11.3 0.00 0.00 0.00 64 1011.8
20260504173504 18 208 3.2 11.3 0.00 0.00 0.00 61 1011.8
20260504173002 18 175 1.6 9.7 0.00 0.00 0.00 63 1011.7
20260504172504 17 203 1.6 12.9 0.00 0.00 0.00 65 1011.6
20260504172006 17 169 4.8 12.9 0.00 0.00 0.00 66 1011.6
20260504171528 17 150 3.2 12.9 0.00 0.00 0.00 64 1011.7
20260504171007 17 182 4.8 14.5 0.00 0.00 0.00 64 1011.6
20260504170506 16 144 4.8 14.5 0.00 0.00 0.00 64 1011.6
20260504151004 15 163 1.6 8.0 0.00 0.00 0.00 70 1010.9
20260504150504 15 178 3.2 6.4 0.00 0.00 0.00 71 1010.9
20260504141011 12 27 0.0 0.0 0.00 0.00 0.00 80 1010.5
20260504140508 12 27 0.0 0.0 0.00 0.00 0.00 81 1010.6
20260504130511 11 62 0.0 0.0 0.00 0.00 0.00 82 1009.9